Location: Devargunta
(16.7631°N, 80.9077°E)
Time: 18:51:54
(UTC+00:00)

Cosmos 540 Rocket - Visible Passes

Search period start: 29 November 2021 00:00
Search period end: 09 December 2021 00:00
Orbit: 741 x 752 km, 74.1° (Epoch: 29 November)

Date Brightness Start Highest point End Pass type
(mag) Time Alt. Az. Time Alt. Az. Time Alt. Az.
29 Nov 3.5 12:22:35 10° SSW 12:27:42 89° E 12:32:47 10° NNE visible
29 Nov 5.1 23:01:27 10° N 23:06:01 32° ENE 23:10:35 10° SE visible
30 Nov 6.2 13:23:19 10° WSW 13:25:52 14° WNW 13:28:27 10° NW visible
30 Nov 6.2 22:19:53 10° NE 22:22:28 14° ENE 22:25:02 10° ESE visible
30 Nov 4.0 23:59:17 10° NW 00:03:59 37° W 00:08:42 10° SSW visible
01 Dec 5.2 12:37:47 10° SW 12:42:20 32° WNW 12:46:52 10° N visible
01 Dec 3.4 23:17:43 26° NNW 23:20:39 89° ENE 23:25:49 10° SSE visible
02 Dec 4.7 22:36:12 33° NE 22:37:14 37° ENE 22:41:57 10° SE visible
03 Dec 5.2 00:16:05 10° WNW 00:18:25 13° W 00:20:52 10° SW visible
03 Dec 6.3 12:55:14 10° W 12:57:07 12° WNW 12:59:01 10° NW visible
03 Dec 6.1 21:54:38 15° E 21:54:38 15° E 21:56:47 10° ESE visible
03 Dec 4.1 23:34:32 31° W 23:35:11 32° W 23:39:44 10° SSW visible
04 Dec 3.8 22:52:55 56° S 22:52:55 56° S 22:57:00 10° S visible
05 Dec 5.5 22:11:16 22° SE 22:11:16 22° SE 22:13:18 10° SE visible
05 Dec 5.5 23:51:09 10° WSW 23:51:09 10° WSW 23:51:16 10° WSW visible
06 Dec 6.6 12:27:46 10° WNW 12:28:21 10° WNW 12:28:57 10° WNW visible
06 Dec 5.4 23:09:26 16° SSW 23:09:26 16° SSW 23:10:44 10° SSW visible
07 Dec 5.9 22:27:39 13° S 22:27:39 13° S 22:28:11 10° S visible
